Terminal Aerodrome Forecast
Issued by NWS

Home | Current Version | Previous Version | Text Only | Print | Product List | Glossary On
Versions: 1 2 3 4 5 6 7 8 9 10 11 12 13 14 15 16 17 18 19 20 21 22 23 24 25 26 27 28 29 30 31 32 33 34 35 36 37 38 39 40 41 42 43 44 45
000
FTUS45 KBOU 110539
TAFBJC
TAF
KBJC 110539Z 1106/1206 28008KT P6SM FEW220
      TEMPO 1106/1108 26010G18KT
     FM110800 24008KT P6SM SCT220
     FM111700 32010KT P6SM FEW120 SCT220
     FM112200 26006KT P6SM SCT120 BKN220
     FM120400 21007KT P6SM FEW130 SCT220=

USA.gov is the U.S. government's official web portal to all federal, state and local government web resources and services.